BCS10K EDDP-LEMD

Flight info

Callsign BCS10K
Flight time N/A
Altitude 35000
Route NEVKO Q243 BAMKI Z94 VAGAB Y231 AMOSA N869 NINTU UN869 REPSI DCT SOVET DCT TIVLI N869 ZAR Z245 TERSA
Aircraft A333/H-SDE3GHIJ2J3J5M1RVWXY/LB2D1

Departure

Time N/A
Airport Leipzig/Halle Airport (EDDP)

Arrival

Time 2026-05-07 13:00
Airport Adolfo Suárez Madrid–Barajas Airport (LEMD)
Time Latitude Longitude Altitude Speed Heading
2026-05-07 12:18 41.78377 -0.96677 34953 ft 393 kts 202°
2026-05-07 12:19 41.73270 -0.99279 34952 ft 392 kts 202°
2026-05-07 12:19 41.68197 -1.01892 34952 ft 390 kts 205°
2026-05-07 12:20 41.63640 -1.05754 34947 ft 389 kts 218°
2026-05-07 12:20 41.59542 -1.10493 34950 ft 390 kts 221°
2026-05-07 12:21 41.55539 -1.15382 34964 ft 390 kts 221°
2026-05-07 12:21 41.51531 -1.20273 34948 ft 390 kts 221°
2026-05-07 12:22 41.48190 -1.24312 34951 ft 390 kts 220°
2026-05-07 12:22 41.43506 -1.29937 34950 ft 390 kts 220°
2026-05-07 12:23 41.40125 -1.33985 34948 ft 390 kts 220°
2026-05-07 12:23 41.35438 -1.39589 34949 ft 390 kts 220°
2026-05-07 12:24 41.32059 -1.43624 34939 ft 389 kts 220°
2026-05-07 12:24 41.28032 -1.48425 34941 ft 389 kts 220°
2026-05-07 12:25 41.24006 -1.53216 34957 ft 388 kts 220°
2026-05-07 12:25 41.20000 -1.57975 34907 ft 391 kts 220°
2026-05-07 12:25 41.17974 -1.60380 34595 ft 392 kts 220°
2026-05-07 12:26 41.15932 -1.62800 33974 ft 397 kts 220°
2026-05-07 12:26 41.13845 -1.65270 33204 ft 407 kts 220°
2026-05-07 12:26 41.11711 -1.67792 32438 ft 414 kts 220°
2026-05-07 12:26 41.09550 -1.70347 31705 ft 417 kts 220°
2026-05-07 12:27 41.07377 -1.72914 30988 ft 418 kts 220°
2026-05-07 12:27 41.05207 -1.75476 30306 ft 419 kts 220°
2026-05-07 12:27 41.03029 -1.78045 29532 ft 419 kts 220°
2026-05-07 12:27 41.00848 -1.80614 28745 ft 419 kts 220°
2026-05-07 12:28 40.98671 -1.83174 27984 ft 419 kts 220°
2026-05-07 12:28 40.96490 -1.85737 27221 ft 419 kts 220°
2026-05-07 12:28 40.94310 -1.88297 26499 ft 419 kts 220°
2026-05-07 12:28 40.92132 -1.90852 25784 ft 418 kts 220°
2026-05-07 12:29 40.89963 -1.93394 25080 ft 418 kts 220°
2026-05-07 12:29 40.87787 -1.95943 24353 ft 418 kts 220°
2026-05-07 12:29 40.85609 -1.98490 23645 ft 418 kts 220°
2026-05-07 12:29 40.83432 -2.01035 22822 ft 418 kts 220°
2026-05-07 12:30 40.81287 -2.03540 22027 ft 417 kts 220°
2026-05-07 12:30 40.79092 -2.06101 21229 ft 416 kts 220°
2026-05-07 12:30 40.76958 -2.08589 20462 ft 414 kts 220°
2026-05-07 12:30 40.74911 -2.11254 19718 ft 414 kts 230°
2026-05-07 12:31 40.73481 -2.14542 18976 ft 416 kts 248°
2026-05-07 12:31 40.72917 -2.18269 18243 ft 419 kts 266°
2026-05-07 12:31 40.73191 -2.22097 17453 ft 420 kts 277°
2026-05-07 12:31 40.73739 -2.25870 16659 ft 417 kts 278°
2026-05-07 12:32 40.74282 -2.29615 15895 ft 414 kts 278°
2026-05-07 12:32 40.74785 -2.33325 15133 ft 410 kts 277°
2026-05-07 12:32 40.75260 -2.37016 14428 ft 404 kts 277°
2026-05-07 12:32 40.75701 -2.40550 14149 ft 374 kts 276°
2026-05-07 12:33 40.76481 -2.46969 13717 ft 347 kts 276°
2026-05-07 12:33 40.76851 -2.50101 13459 ft 346 kts 276°
2026-05-07 12:33 40.77220 -2.53226 13190 ft 345 kts 276°
2026-05-07 12:34 40.77587 -2.56349 13035 ft 343 kts 276°
2026-05-07 12:34 40.77940 -2.59464 13027 ft 343 kts 274°
2026-05-07 12:34 40.77963 -2.62584 12832 ft 338 kts 259°
2026-05-07 12:34 40.77285 -2.65501 12580 ft 332 kts 240°
2026-05-07 12:35 40.75968 -2.67961 12319 ft 328 kts 227°
2026-05-07 12:35 40.74391 -2.70131 12056 ft 328 kts 224°
2026-05-07 12:35 40.72774 -2.72249 11810 ft 327 kts 224°
2026-05-07 12:35 40.71170 -2.74352 11566 ft 325 kts 224°
2026-05-07 12:36 40.69575 -2.76453 11302 ft 323 kts 224°
2026-05-07 12:36 40.67989 -2.78551 11047 ft 323 kts 224°
2026-05-07 12:36 40.66398 -2.80640 10813 ft 322 kts 222°
2026-05-07 12:36 40.64649 -2.82451 10562 ft 320 kts 213°
2026-05-07 12:37 40.62779 -2.84015 10325 ft 317 kts 211°
2026-05-07 12:37 40.60893 -2.85528 10095 ft 317 kts 211°
2026-05-07 12:37 40.59006 -2.87036 10021 ft 317 kts 211°
2026-05-07 12:37 40.57130 -2.88539 10021 ft 312 kts 211°
2026-05-07 12:38 40.55317 -2.89993 10024 ft 304 kts 211°
2026-05-07 12:38 40.53481 -2.91467 10010 ft 311 kts 211°
2026-05-07 12:38 40.51684 -2.92911 10017 ft 294 kts 211°
2026-05-07 12:38 40.49954 -2.94299 10013 ft 294 kts 211°
2026-05-07 12:39 40.48243 -2.95673 10017 ft 276 kts 211°
2026-05-07 12:39 40.46641 -2.96959 10018 ft 265 kts 211°
2026-05-07 12:39 40.45097 -2.98197 10016 ft 263 kts 211°
2026-05-07 12:39 40.43531 -2.99453 10010 ft 264 kts 211°
2026-05-07 12:40 40.41961 -3.00710 10017 ft 265 kts 211°
2026-05-07 12:40 40.40388 -3.01970 9868 ft 264 kts 211°
2026-05-07 12:40 40.38825 -3.03221 9601 ft 262 kts 211°
2026-05-07 12:40 40.37278 -3.04459 9392 ft 260 kts 211°
2026-05-07 12:41 40.35732 -3.05695 9156 ft 261 kts 211°
2026-05-07 12:41 40.34171 -3.06943 8917 ft 262 kts 211°
2026-05-07 12:41 40.32611 -3.08189 8712 ft 262 kts 211°
2026-05-07 12:41 40.31057 -3.09430 8491 ft 261 kts 211°
2026-05-07 12:42 40.29506 -3.10667 8283 ft 260 kts 211°
2026-05-07 12:42 40.27994 -3.11934 8066 ft 260 kts 216°
2026-05-07 12:42 40.26775 -3.13667 7848 ft 261 kts 238°
2026-05-07 12:42 40.26235 -3.15929 7645 ft 265 kts 264°
2026-05-07 12:43 40.26367 -3.18342 7418 ft 267 kts 276°
2026-05-07 12:43 40.26688 -3.20732 7193 ft 267 kts 277°
2026-05-07 12:43 40.27030 -3.23121 7010 ft 267 kts 278°
2026-05-07 12:43 40.27367 -3.25521 6742 ft 269 kts 277°
2026-05-07 12:44 40.27697 -3.27933 6437 ft 269 kts 277°
2026-05-07 12:44 40.28019 -3.30333 6169 ft 267 kts 277°
2026-05-07 12:44 40.28399 -3.32670 6028 ft 259 kts 283°
2026-05-07 12:44 40.28979 -3.34897 5750 ft 257 kts 288°
2026-05-07 12:45 40.29612 -3.37071 5484 ft 255 kts 289°
2026-05-07 12:45 40.30501 -3.39064 5280 ft 252 kts 307°
2026-05-07 12:45 40.31730 -3.40612 5222 ft 240 kts 321°
2026-05-07 12:45 40.33032 -3.41882 5121 ft 227 kts 321°
2026-05-07 12:46 40.34258 -3.43108 5001 ft 216 kts 321°
2026-05-07 12:46 40.35426 -3.44324 4733 ft 212 kts 321°
2026-05-07 12:46 40.36588 -3.45511 4421 ft 212 kts 322°
2026-05-07 12:46 40.37754 -3.46671 4132 ft 210 kts 326°
2026-05-07 12:47 40.39110 -3.47259 3842 ft 206 kts
2026-05-07 12:47 40.40425 -3.46713 3590 ft 196 kts 39°
2026-05-07 12:47 40.41298 -3.45466 3666 ft 181 kts 55°
2026-05-07 12:47 40.42063 -3.44050 4188 ft 197 kts 57°
2026-05-07 12:48 40.43035 -3.42782 5026 ft 199 kts 28°
2026-05-07 12:48 40.44347 -3.42382 6026 ft 194 kts
2026-05-07 12:48 40.45725 -3.42341 6685 ft 206 kts
2026-05-07 12:48 40.47265 -3.42340 6959 ft 235 kts
2026-05-07 12:49 40.48964 -3.42334 6979 ft 251 kts
2026-05-07 12:49 40.50727 -3.42326 6987 ft 254 kts
2026-05-07 12:49 40.52503 -3.42308 6994 ft 255 kts
2026-05-07 12:49 40.54269 -3.42149 6993 ft 255 kts
2026-05-07 12:50 40.55997 -3.41971 7002 ft 246 kts
2026-05-07 12:50 40.57649 -3.41791 7369 ft 235 kts
2026-05-07 12:50 40.59344 -3.41600 7669 ft 257 kts
2026-05-07 12:50 40.61245 -3.41382 8027 ft 283 kts
2026-05-07 12:51 40.63222 -3.41152 8609 ft 293 kts
2026-05-07 12:51 40.65266 -3.40914 8939 ft 295 kts
2026-05-07 12:51 40.67316 -3.40674 8990 ft 296 kts
2026-05-07 12:51 40.69375 -3.40432 8988 ft 297 kts
2026-05-07 12:52 40.71430 -3.40191 8984 ft 297 kts
2026-05-07 12:52 40.73486 -3.39949 8985 ft 297 kts
2026-05-07 12:52 40.75549 -3.39706 8984 ft 297 kts
2026-05-07 12:52 40.77616 -3.39664 9026 ft 297 kts 353°
2026-05-07 12:53 40.79569 -3.40346 8851 ft 286 kts 332°
2026-05-07 12:53 40.81109 -3.41878 8661 ft 274 kts 307°
2026-05-07 12:53 40.81983 -3.44025 8469 ft 261 kts 282°
2026-05-07 12:53 40.82077 -3.46356 8257 ft 249 kts 256°
2026-05-07 12:54 40.81433 -3.48416 8056 ft 240 kts 238°
2026-05-07 12:54 40.80584 -3.50277 7853 ft 235 kts 236°
2026-05-07 12:54 40.79728 -3.52088 7668 ft 230 kts 236°
2026-05-07 12:54 40.78902 -3.53879 7471 ft 227 kts 236°
2026-05-07 12:55 40.78067 -3.55628 7227 ft 223 kts 228°
2026-05-07 12:55 40.76903 -3.56922 6977 ft 219 kts 205°
2026-05-07 12:55 40.75469 -3.57563 6719 ft 218 kts 188°
2026-05-07 12:55 40.73951 -3.57708 6419 ft 220 kts 179°
2026-05-07 12:56 40.72414 -3.57671 6084 ft 223 kts 178°
2026-05-07 12:56 40.70864 -3.57642 5764 ft 222 kts 178°
2026-05-07 12:56 40.69323 -3.57615 5402 ft 222 kts 178°
2026-05-07 12:56 40.67775 -3.57592 5066 ft 223 kts 178°
2026-05-07 12:57 40.66238 -3.57582 4767 ft 217 kts 179°
2026-05-07 12:57 40.64775 -3.57574 4498 ft 204 kts 178°
2026-05-07 12:57 40.63400 -3.57563 4238 ft 191 kts 178°
2026-05-07 12:57 40.62105 -3.57553 3979 ft 181 kts 177°
2026-05-07 12:58 40.60891 -3.57543 3746 ft 167 kts 178°
2026-05-07 12:58 40.59782 -3.57533 3536 ft 153 kts 178°
2026-05-07 12:58 40.58755 -3.57525 3337 ft 143 kts 179°
2026-05-07 12:58 40.57762 -3.57519 3157 ft 143 kts 179°
2026-05-07 12:59 40.56758 -3.57507 2948 ft 145 kts 179°
2026-05-07 12:59 40.55753 -3.57499 2718 ft 144 kts 179°
2026-05-07 12:59 40.54764 -3.57498 2508 ft 141 kts 178°
2026-05-07 12:59 40.53791 -3.57499 2332 ft 139 kts 177°
2026-05-07 13:00 40.52831 -3.57478 2136 ft 137 kts 176°
2026-05-07 13:00 40.51887 -3.57474 2015 ft 131 kts 174°
2026-05-07 13:00 40.51121 -3.57466 1998 ft 75 kts 179°
2026-05-07 13:00 40.50749 -3.57464 1998 ft 48 kts 180°
2026-05-07 13:01 40.50476 -3.57461 1996 ft 23 kts 182°
2026-05-07 13:01 40.50331 -3.57523 1996 ft 22 kts 210°
2026-05-07 13:01 40.50196 -3.57624 1993 ft 21 kts 209°
2026-05-07 13:01 40.50074 -3.57684 1990 ft 19 kts 187°
2026-05-07 13:02 40.49941 -3.57687 1993 ft 19 kts 180°
2026-05-07 13:02 40.49809 -3.57686 1992 ft 19 kts 179°
2026-05-07 13:02 40.49749 -3.57701 1994 ft 5 kts 218°
2026-05-07 13:02 40.49738 -3.57740 1997 ft 4 kts 266°
2026-05-07 13:03 40.49737 -3.57772 1997 ft 4 kts 268°
2026-05-07 13:03 40.49736 -3.57834 1999 ft 7 kts 269°
2026-05-07 13:03 40.49736 -3.57884 1998 ft 4 kts 270°
2026-05-07 13:03 40.49736 -3.57920 2000 ft 7 kts 270°
2026-05-07 13:04 40.49735 -3.58005 2002 ft 9 kts 266°
2026-05-07 13:04 40.49702 -3.58055 2004 ft 8 kts 199°
2026-05-07 13:04 40.49627 -3.58056 2005 ft 13 kts 180°
2026-05-07 13:04 40.49518 -3.58056 2004 ft 18 kts 180°
2026-05-07 13:05 40.49391 -3.58055 2005 ft 19 kts 180°
2026-05-07 13:05 40.49259 -3.58054 2007 ft 19 kts 179°
2026-05-07 13:05 40.49122 -3.58053 2007 ft 20 kts 179°
2026-05-07 13:05 40.48979 -3.58052 2005 ft 21 kts 179°
2026-05-07 13:06 40.48833 -3.58050 2004 ft 21 kts 179°
2026-05-07 13:06 40.48687 -3.58049 2004 ft 21 kts 180°
2026-05-07 13:06 40.48553 -3.58017 2004 ft 20 kts 148°
2026-05-07 13:06 40.48418 -3.57906 1995 ft 26 kts 147°
2026-05-07 13:07 40.48274 -3.57772 1996 ft 25 kts 142°
2026-05-07 13:07 40.48153 -3.57648 1998 ft 20 kts 142°
2026-05-07 13:07 40.48048 -3.57541 2001 ft 18 kts 142°
2026-05-07 13:07 40.47950 -3.57442 2003 ft 17 kts 142°
2026-05-07 13:08 40.47859 -3.57350 2005 ft 17 kts 142°
2026-05-07 13:08 40.47760 -3.57249 2001 ft 19 kts 142°
2026-05-07 13:08 40.47650 -3.57137 1999 ft 21 kts 142°
2026-05-07 13:08 40.47543 -3.57029 1997 ft 19 kts 142°
2026-05-07 13:09 40.47436 -3.56919 1996 ft 20 kts 142°
2026-05-07 13:09 40.47320 -3.56802 1993 ft 22 kts 142°
2026-05-07 13:09 40.47199 -3.56680 1988 ft 21 kts 142°
2026-05-07 13:09 40.47080 -3.56577 1987 ft 20 kts 158°
2026-05-07 13:10 40.46945 -3.56549 1983 ft 20 kts 182°
2026-05-07 13:10 40.46806 -3.56558 1978 ft 19 kts 183°
2026-05-07 13:10 40.46716 -3.56566 1981 ft 20 kts 183°
2026-05-07 13:10 40.46578 -3.56576 1980 ft 20 kts 183°
2026-05-07 13:11 40.46462 -3.56585 1976 ft 14 kts 183°
2026-05-07 13:11 40.46366 -3.56592 1979 ft 14 kts 183°
2026-05-07 13:11 40.46276 -3.56599 1977 ft 12 kts 183°
2026-05-07 13:11 40.46224 -3.56561 1978 ft 8 kts 107°
2026-05-07 13:12 40.46188 -3.56516 1980 ft 7 kts 168°
2026-05-07 13:12 40.46136 -3.56517 1975 ft 8 kts 181°
2026-05-07 13:12 40.46079 -3.56520 1979 ft 9 kts 183°
2026-05-07 13:12 40.46016 -3.56525 1974 ft 9 kts 183°
2026-05-07 13:13 40.45964 -3.56496 1979 ft 9 kts 120°
2026-05-07 13:13 40.45959 -3.56406 1975 ft 11 kts 91°
2026-05-07 13:13 40.45959 -3.56296 1973 ft 11 kts 90°
2026-05-07 13:13 40.45960 -3.56239 1967 ft 3 kts 77°
2026-05-07 13:14 40.45976 -3.56228 1968 ft 4 kts 20°
2026-05-07 13:14 40.46013 -3.56222 1966 ft 5 kts
2026-05-07 13:14 40.46034 -3.56221 1966 ft 0 kts